When you browse on this site, cookies collect data to enhance your experience and personalize the content and advertising you see.
Visit our Privacy Policy to learn more. By continuing to use the site, you agree to this use of cookies and data.
  • In Portugal
  • List of Countries
  • For 7 days
  • Water Temperature
  • Weather Map
  • Weather Widgets
  • user-avatar
    Login

    Hourly Weather Lominskoe

    Today, 21 August, Wednesday

    Time Temperature Precipitation Wind Pressure Humidity
    00:00 +12°C° 0 mm 0 mps 744 mmHg 85%
    01:00 +12°C° 0 mm 0 mps 744 mmHg 86%
    02:00 +12°C° 0 mm 0 mps 745 mmHg 87%
    03:00 +12°C° 0 mm 0 mps 745 mmHg 87%
    04:00 +12°C° 0 mm 0 mps 745 mmHg 87%
    05:00 +13°C° 0 mm 1 mps 745 mmHg 87%
    06:00 +15°C° 0 mm 1 mps 745 mmHg 82%
    07:00 +16°C° 0 mm 1 mps 745 mmHg 77%
    08:00 +19°C° 0 mm 1 mps 745 mmHg 72%
    09:00 +20°C° 0 mm 1 mps 745 mmHg 68%
    10:00 +21°C° 0 mm 2 mps 745 mmHg 63%
    11:00 +23°C° 0 mm 2 mps 744 mmHg 58%
    12:00 +23°C° 0 mm 2 mps 744 mmHg 62%
    13:00 +23°C° 0 mm 2 mps 743 mmHg 67%
    14:00 +21°C° 0 mm 3 mps 743 mmHg 71%
    15:00 +21°C° 0.6 mm 3 mps 742 mmHg 78%
    16:00 +21°C° 0.6 mm 3 mps 742 mmHg 85%
    17:00 +20°C° 0.6 mm 3 mps 741 mmHg 92%
    18:00 +20°C° 1.2 mm 3 mps 741 mmHg 93%
    19:00 +20°C° 1.2 mm 3 mps 740 mmHg 94%
    20:00 +19°C° 1.2 mm 3 mps 740 mmHg 96%
    21:00 +19°C° 1 mm 3 mps 740 mmHg 96%
    22:00 +18°C° 1 mm 3 mps 740 mmHg 97%
    23:00 +17°C° 1 mm 3 mps 740 mmHg 98%

    Tomorrow, 22 August, Thursday

    Time Temperature Precipitation Wind Pressure Humidity
    00:00 +16°C° 0.6 mm 3 mps 740 mmHg 98%
    01:00 +14°C° 0.6 mm 3 mps 741 mmHg 98%
    02:00 +13°C° 0.6 mm 4 mps 741 mmHg 98%
    03:00 +13°C° 0.1 mm 3 mps 742 mmHg 97%
    04:00 +13°C° 0.1 mm 3 mps 742 mmHg 97%
    05:00 +13°C° 0.1 mm 3 mps 742 mmHg 97%
    06:00 +13°C° 0 mm 3 mps 743 mmHg 95%
    07:00 +13°C° 0 mm 3 mps 743 mmHg 93%
    08:00 +13°C° 0 mm 3 mps 744 mmHg 92%
    09:00 +14°C° 0 mm 3 mps 744 mmHg 84%
    10:00 +17°C° 0 mm 3 mps 744 mmHg 76%
    11:00 +18°C° 0 mm 3 mps 745 mmHg 68%
    12:00 +19°C° 0 mm 3 mps 745 mmHg 63%
    13:00 +20°C° 0 mm 3 mps 745 mmHg 58%
    14:00 +21°C° 0 mm 3 mps 745 mmHg 54%
    15:00 +20°C° 0 mm 3 mps 745 mmHg 57%
    16:00 +20°C° 0 mm 2 mps 745 mmHg 60%
    17:00 +20°C° 0 mm 2 mps 745 mmHg 63%
    18:00 +18°C° 0 mm 2 mps 745 mmHg 70%
    19:00 +16°C° 0 mm 1 mps 745 mmHg 77%
    20:00 +14°C° 0 mm 1 mps 745 mmHg 84%
    21:00 +13°C° 0 mm 1 mps 745 mmHg 85%
    22:00 +13°C° 0 mm 1 mps 746 mmHg 85%
    23:00 +13°C° 0 mm 1 mps 746 mmHg 86%

    Day after tomorrow, 23 August, Friday

    Time Temperature Precipitation Wind Pressure Humidity
    00:00 +12°C° 0 mm 1 mps 746 mmHg 89%
    01:00 +12°C° 0 mm 1 mps 746 mmHg 92%
    02:00 +11°C° 0 mm 1 mps 747 mmHg 95%
    03:00 +11°C° 0 mm 1 mps 747 mmHg 96%
    04:00 +11°C° 0 mm 1 mps 747 mmHg 96%
    05:00 +11°C° 0 mm 1 mps 747 mmHg 96%
    06:00 +12°C° 0 mm 1 mps 747 mmHg 89%
    07:00 +14°C° 0 mm 1 mps 747 mmHg 83%
    08:00 +16°C° 0 mm 1 mps 747 mmHg 76%
    09:00 +17°C° 0 mm 2 mps 747 mmHg 69%
    10:00 +18°C° 0 mm 2 mps 747 mmHg 62%
    11:00 +20°C° 0 mm 2 mps 747 mmHg 55%
    12:00 +20°C° 0 mm 2 mps 747 mmHg 53%
    13:00 +21°C° 0 mm 2 mps 747 mmHg 52%
    14:00 +21°C° 0 mm 2 mps 747 mmHg 50%
    15:00 +21°C° 0 mm 2 mps 747 mmHg 55%
    16:00 +21°C° 0 mm 2 mps 747 mmHg 59%
    17:00 +21°C° 0 mm 1 mps 746 mmHg 64%
    18:00 +19°C° 0 mm 1 mps 746 mmHg 71%
    19:00 +16°C° 0 mm 1 mps 746 mmHg 78%
    20:00 +14°C° 0 mm 1 mps 746 mmHg 84%
    21:00 +14°C° 0 mm 1 mps 746 mmHg 86%
    22:00 +13°C° 0 mm 1 mps 746 mmHg 87%
    23:00 +13°C° 0 mm 1 mps 746 mmHg 89%

    24 August, Saturday

    Time Temperature Precipitation Wind Pressure Humidity
    00:00 +12°C° 0 mm 1 mps 746 mmHg 88%
    01:00 +12°C° 0 mm 1 mps 746 mmHg 88%
    02:00 +12°C° 0 mm 2 mps 746 mmHg 88%
    03:00 +12°C° 0 mm 2 mps 746 mmHg 88%
    04:00 +12°C° 0 mm 2 mps 746 mmHg 88%
    05:00 +12°C° 0 mm 2 mps 746 mmHg 89%
    06:00 +14°C° 0 mm 2 mps 746 mmHg 83%
    07:00 +14°C° 0 mm 3 mps 745 mmHg 77%
    08:00 +17°C° 0 mm 3 mps 745 mmHg 72%
    09:00 +18°C° 0 mm 3 mps 745 mmHg 68%
    10:00 +20°C° 0 mm 4 mps 745 mmHg 64%
    11:00 +21°C° 0 mm 4 mps 745 mmHg 61%
    12:00 +21°C° 0 mm 4 mps 745 mmHg 60%
    13:00 +22°C° 0 mm 4 mps 745 mmHg 58%
    14:00 +22°C° 0 mm 4 mps 744 mmHg 57%
    15:00 +22°C° 0 mm 4 mps 744 mmHg 60%
    16:00 +21°C° 0 mm 3 mps 744 mmHg 63%
    17:00 +21°C° 0 mm 3 mps 743 mmHg 67%
    18:00 +19°C° 0 mm 3 mps 743 mmHg 73%
    19:00 +18°C° 0 mm 3 mps 743 mmHg 79%
    20:00 +16°C° 0 mm 2 mps 743 mmHg 86%
    21:00 +16°C° 0 mm 2 mps 743 mmHg 87%
    22:00 +15°C° 0 mm 2 mps 743 mmHg 89%
    23:00 +15°C° 0 mm 2 mps 743 mmHg 90%

    25 August, Sunday

    Time Temperature Precipitation Wind Pressure Humidity
    00:00 +14°C° 0 mm 2 mps 743 mmHg 93%
    01:00 +14°C° 0 mm 2 mps 743 mmHg 95%
    02:00 +13°C° 0 mm 2 mps 743 mmHg 97%
    03:00 +13°C° 0 mm 2 mps 743 mmHg 98%
    04:00 +13°C° 0 mm 2 mps 743 mmHg 98%
    05:00 +13°C° 0 mm 2 mps 743 mmHg 98%
    06:00 +14°C° 0 mm 2 mps 743 mmHg 95%
    07:00 +15°C° 0 mm 2 mps 743 mmHg 91%
    08:00 +16°C° 0 mm 2 mps 744 mmHg 87%
    09:00 +17°C° 0 mm 2 mps 744 mmHg 77%
    10:00 +19°C° 0 mm 3 mps 744 mmHg 67%
    11:00 +20°C° 0 mm 3 mps 745 mmHg 57%
    12:00 +20°C° 0 mm 3 mps 745 mmHg 56%
    13:00 +20°C° 0 mm 3 mps 745 mmHg 55%
    14:00 +21°C° 0 mm 3 mps 745 mmHg 53%
    15:00 +20°C° 0 mm 3 mps 745 mmHg 57%
    16:00 +20°C° 0 mm 2 mps 745 mmHg 61%
    17:00 +19°C° 0 mm 2 mps 745 mmHg 65%
    18:00 +17°C° 0 mm 2 mps 746 mmHg 74%
    19:00 +15°C° 0 mm 2 mps 746 mmHg 82%
    20:00 +13°C° 0 mm 1 mps 746 mmHg 91%
    21:00 +13°C° 0 mm 1 mps 746 mmHg 92%
    22:00 +12°C° 0 mm 1 mps 747 mmHg 94%
    23:00 +12°C° 0 mm 1 mps 747 mmHg 95%

    26 August, Monday

    Time Temperature Precipitation Wind Pressure Humidity
    00:00 +11°C° 0 mm 1 mps 747 mmHg 95%
    01:00 +11°C° 0 mm 1 mps 747 mmHg 96%
    02:00 +10°C° 0 mm 1 mps 747 mmHg 96%
    03:00 +10°C° 0 mm 1 mps 747 mmHg 96%
    04:00 +10°C° 0 mm 1 mps 747 mmHg 96%
    05:00 +10°C° 0 mm 1 mps 747 mmHg 96%
    06:00 +11°C° 0 mm 1 mps 747 mmHg 91%
    07:00 +13°C° 0 mm 1 mps 748 mmHg 85%
    08:00 +15°C° 0 mm 1 mps 748 mmHg 80%
    09:00 +16°C° 0 mm 1 mps 748 mmHg 72%
    10:00 +19°C° 0 mm 1 mps 748 mmHg 64%
    11:00 +21°C° 0 mm 1 mps 748 mmHg 57%
    12:00 +21°C° 0 mm 1 mps 747 mmHg 54%
    13:00 +22°C° 0 mm 1 mps 747 mmHg 51%
    14:00 +21°C° 0 mm 2 mps 747 mmHg 48%
    15:00 +22°C° 0 mm 1 mps 746 mmHg 53%
    16:00 +22°C° 0 mm 1 mps 746 mmHg 58%
    17:00 +21°C° 0 mm 1 mps 746 mmHg 63%
    18:00 +19°C° 0 mm 1 mps 745 mmHg 69%
    19:00 +16°C° 0 mm 1 mps 745 mmHg 74%
    20:00 +14°C° 0 mm 2 mps 745 mmHg 80%
    21:00 +14°C° 0 mm 2 mps 745 mmHg 84%
    22:00 +13°C° 0 mm 2 mps 745 mmHg 88%
    23:00 +12°C° 0 mm 2 mps 745 mmHg 92%
    Show more